Home > Time Zones > World Clock > Weather > Italy > Monza > Past weeks

Flag for Italy Weather past 2 weeks in Monza, Italy

Now
66 °F

Thundershowers. Passing clouds.


Feels Like: 66 °F
Forecast: 57 / 75 °F
Wind: 3 mph from South

Location: Milan / Linate

Current Time: Aug 20, 2014 at 10:52:51 PM

Latest Report: Aug 20, 2014 at 9:50 PM


Visibility: N/A

Pressure: 29.86 "Hg

Humidity: 94%

Dew point: 64 °F

Location of MonzaLocation

Historic Weather in Monza — Graph

°F

Monza temperature yesterday

Maximum temperature yesterday: 68 °F (at 12:20 AM)
Minimum temperature yesterday: 63 °F (at 6:20 AM)
Average temperature yesterday: 66 °F

Past Weeks' High & Low Weather Summary

 TemperatureHumidityPressure
High86 °F (Aug 11, 4:20 PM)100% (Aug 6, 4:50 AM)30.09 "Hg (Aug 6, 4:50 AM)
Low55 °F (Aug 17, 6:20 AM)32% (Aug 14, 5:20 PM)29.68 "Hg (Aug 13, 9:20 AM)
Average73 °F75%29.91 "Hg
* Reported Aug 5 9:20 PM — Aug 20 9:50 PM, Monza, Weather by CustomWeather, © 2014

Note: Actual official high and low records may vary slightly from our data, if they occured in-between our weather recording intervals... More about our weather records

Advertising

Monza weather history for previous 24 hours

 ConditionsComfort  
Time TempWeatherWind HumidityBarometerVisibility
9:50 PM
Aug 20
66 °FThundershowers. Passing clouds.3 mph94%29.86 "HgN/A
9:20 PM66 °FThundershowers. Partly sunny.3 mph88%29.89 "HgN/A
8:50 PM66 °FThundershowers. Scattered clouds.3 mph88%29.89 "HgN/A
8:20 PM68 °FThundershowers. Scattered clouds.2 mph78%29.86 "HgN/A
7:50 PM68 °FScattered clouds.3 mph78%29.86 "HgN/A
7:20 PM70 °FScattered clouds.6 mph78%29.86 "HgN/A
6:50 PM72 °FPartly sunny.5 mph78%29.86 "HgN/A
6:20 PM73 °FThunderstorms. Broken clouds.5 mph74%29.89 "Hg4 mi
5:50 PM73 °FScattered clouds.3 mph74%29.89 "HgN/A
5:20 PM75 °FScattered clouds.6 mph69%29.89 "HgN/A
4:50 PM73 °FScattered clouds.6 mph74%29.89 "HgN/A
4:20 PM75 °FBroken clouds.3 mph69%29.89 "HgN/A
3:50 PM73 °FBroken clouds.6 mph74%29.92 "HgN/A
3:20 PM73 °FPartly sunny.6 mph74%29.92 "HgN/A
2:50 PM73 °FBroken clouds.6 mph78%29.92 "HgN/A
2:20 PM72 °FBroken clouds.5 mph78%29.92 "HgN/A
1:50 PM72 °FBroken clouds.5 mph83%29.95 "HgN/A
1:20 PM70 °FPartly sunny.5 mph88%29.95 "HgN/A
12:50 PM68 °FPartly sunny.6 mph94%29.95 "Hg5 mi
12:20 PM66 °FPartly sunny.5 mph100%29.95 "Hg5 mi
11:50 AM66 °FPartly sunny.7 mph94%29.95 "Hg5 mi
11:20 AM66 °FPartly sunny.6 mph100%29.95 "Hg5 mi
10:50 AM66 °FPartly sunny.5 mph100%29.95 "Hg4 mi
10:20 AM66 °FPartly sunny.5 mph100%29.95 "Hg4 mi
9:50 AM66 °FBroken clouds.6 mph94%29.95 "Hg5 mi
9:20 AM64 °FBroken clouds.3 mph100%29.95 "Hg5 mi
8:50 AM64 °FBroken clouds.3 mph100%29.95 "Hg5 mi
8:20 AM64 °FBroken clouds.3 mph100%29.92 "Hg4 mi
7:50 AM64 °FRain showers. Broken clouds.3 mph100%29.92 "Hg4 mi
7:20 AM64 °FLight rain. Partly cloudy.2 mph100%29.92 "Hg4 mi
6:50 AM64 °FPartly cloudy.2 mph100%29.92 "Hg4 mi
6:20 AM64 °FPartly cloudy.3 mph100%29.92 "Hg5 mi
5:50 AM64 °FPartly cloudy.5 mph100%29.92 "Hg5 mi
5:20 AM64 °FPartly cloudy.6 mph100%29.92 "Hg5 mi
4:50 AM64 °FLight rain. Partly cloudy.5 mph100%29.92 "Hg4 mi
4:20 AM64 °FLight rain. Partly cloudy.2 mph100%29.92 "Hg5 mi
3:50 AM66 °FLight rain. Partly cloudy.3 mph94%29.92 "HgN/A
3:20 AM66 °FPartly cloudy.5 mph94%29.92 "HgN/A
2:50 AM64 °FPartly cloudy.5 mph100%29.92 "HgN/A
2:20 AM64 °FPartly cloudy.2 mph100%29.95 "HgN/A
1:50 AM64 °FPartly cloudy.3 mph100%29.95 "HgN/A
1:20 AM64 °FPartly cloudy.3 mph100%29.95 "HgN/A
12:50 AM64 °FPartly cloudy.6 mph100%29.95 "HgN/A
12:20 AM64 °FPartly cloudy.5 mph100%29.95 "HgN/A
11:50 PM
Aug 19
64 °FPartly cloudy.5 mph100%29.95 "HgN/A
11:20 PM64 °FPartly cloudy.6 mph100%29.95 "HgN/A
10:50 PM66 °FPartly cloudy.3 mph94%29.95 "HgN/A
10:20 PM64 °FPassing clouds.5 mph100%29.95 "HgN/A
Weather by CustomWeather, © 2014

See weather overviewHow to use our weather pages